Regional Weather Roundup
Issued by NWS Cleveland, OH

Home | Current Version | Previous Version | Graphics & Text | Print | Product List | Glossary On
Versions: 1 2 3 4 5 6 7 8 9 10 11 12 13 14 15 16 17 18 19 20 21 22 23 24 25 26 27 28 29 30 31 32 33 34 35 36 37 38 39 40 41 42 43 44 45 46 47 48 49 50
000
ASUS41 KCLE 240010
RWRCLE
OHIO REGIONAL WEATHER ROUNDUP
NATIONAL WEATHER SERVICE WILMINGTON, OH
800 PM EDT WED JUL 23 2014

NOTE: "FAIR" INDICATES FEW OR NO CLOUDS BELOW 12,000 FEET WITH NO
SIGNIFICANT WEATHER AND/OR OBSTRUCTIONS TO VISIBILITY.

OHZ001>008-015>018-024>027-034-035-043-044-240100-
   NORTHWEST OHIO

CITY           SKY/WX    TMP DP  RH WIND       PRES   REMARKS
DEFIANCE       PTSUNNY   72  58  61 NE7       30.04S
FINDLAY        MOCLDY    68  61  78 NE14      30.04R
TOLEDO EXPRESS CLOUDY    70  57  63 NE6       30.04F
TOLEDO METCALF CLOUDY    68  59  73 E6        30.06R
LIMA           CLOUDY    71  63  75 NE7       30.03S
$$

OHZ009>014-019>023-028>033-038-089-240100-
   NORTHEAST OHIO

CITY           SKY/WX    TMP DP  RH WIND       PRES   REMARKS
CLE-HOPKINS    MOCLDY    65  56  72 N15       30.06R
CLE-LAKEFRONT  CLOUDY    66  58  75 N13       30.02R
CUY CO. ARPT   CLOUDY    66  61  82 N12       30.04R
LORAIN-ELYRIA  CLOUDY    68  57  68 N12       30.06R
ASHTABULA      CLOUDY    67  60  78 NW8       30.01S
AKRON-CANTON   CLOUDY    66  57  72 N10       30.04R
WOOSTER        CLOUDY    66  58  75 N10G20    30.04R
MANSFIELD      CLOUDY    63  61  93 N8        30.05S
YOUNGSTOWN     CLOUDY    65  59  81 NW12      30.01R
$$

OHZ042-051>053-060>062-070>072-077>081-240100-
  SOUTHWEST OHIO

CITY           SKY/WX    TMP DP  RH WIND       PRES   REMARKS
CINC-COVINGTON MOCLDY    79  70  74 N7        29.97S
CINC-LUNKEN    MOCLDY    79  70  74 NE6       29.96S
HAMILTON       CLOUDY    76  69  79 N12G21    29.98S
DAYTON         CLOUDY    69  67  93 NE14      30.03S
WRIGHT-PAT AFB LGT RAIN  70  66  88 N9        30.01R
DAYTON GENERAL CLOUDY    73  68  84 N15       29.99S
WILMINGTON     MOCLDY    76  68  76 N7        29.98F
$$

OHZ036-037-039>041-045>050-054>059-063>069-073>076-082>088-240100-
  CENTRAL AND SOUTHEAST OHIO

CITY           SKY/WX    TMP DP  RH WIND       PRES   REMARKS
COLUMBUS       LGT RAIN  73  67  81 N10       29.98S
OSU AIRPORT    CLOUDY    70  64  81 N12       30.00S
BOLTON FIELD   DRIZZLE   69  68  96 N9        30.00R
RICKENBACK AFB CLOUDY    74  66  77 N8        29.97S
NEWARK         CLOUDY    71  64  78 NE8G17    29.99R
MARION         CLOUDY    65  61  87 NE12      30.05R
LANCASTER      MOCLDY    75  67  76 N5        29.98S
ZANESVILLE     CLOUDY    72  65  78 N10       29.98S
NEW PHILLY     CLOUDY    68  62  81 N10       30.01R
$$



USA.gov is the U.S. government's official web portal to all federal, state and local government web resources and services.